Weather History for Youngstown, OH

Change the Weather History Date:

Saturday, April 6, 2013

  Actual Average Record
Temperature  
Mean Temperature 38 °F 45 °F  
Max Temperature 55 °F 55 °F 87 °F (2010)
Min Temperature 21 °F 35 °F 18 °F (1982)
Degree Days  
Heating Degree Days 27 20  
Month to date heating degree days 183 127  
Since 1 July heating degree days 5599 5651  
Cooling Degree Days 0 0  
Month to date cooling degree days 0 0  
Year to date cooling degree days 0 1  
Moisture  
Dew Point 14 °F    
Average Humidity 48    
Maximum Humidity 81    
Minimum Humidity 15    
Precipitation  
Precipitation 0.00 in 0.11 in 0.72 in (2001)
Month to date precipitation 0.06 0.69  
Year to date precipitation 7.07 8.33  
Snow  
Snow 0.00 in 0.10 in - ()
Month to date snowfall 0.6 1.1  
Since 1 July snowfall 80.9 60.8  
Snow Depth 0.00 in    
Sea Level Pressure  
Sea Level Pressure 30.19 in    
Wind  
Wind Speed 7 mph (SE)    
Max Wind Speed 17 mph    
Max Gust Speed 23 mph    
Visibility 10 miles    
Events      
T = Trace of Precipitation, MM = Missing Value Source: NWS Daily Summary

Daily Weather History Graph

Daily Weather History Graph

Search for Another Location

Airport:

Trip Planner

Search our weather history database for the weather conditions in past years. The results will help you decide how hot, cold, wet, or windy it might be!

Date:

Astronomy

Apr. 06, 2013 Rise Set
Actual Time 6:57 AM EDT 7:53 PM EDT
Civil Twilight 6:29 AM EDT 8:21 PM EDT
Nautical Twilight 5:55 AM EDT 8:55 PM EDT
Astronomical Twilight 5:21 AM EDT 9:29 PM EDT
Moon 4:42 AM EDT (4/6) 4:18 PM EDT (4/6)
Length of Visible Light 13h 52m
Length of Day
12h 56m
Waning Crescent, 15% of the Moon is Illuminated
Apr 6
Waning Crescent
Apr 10
New
Apr 18
First Quarter
Apr 25
Full
May 2
Last Quarter

Hourly Weather History & Observations

Time (EDT) Temp. Windchill Dew Point Humidity Pressure Visibility Wind Dir Wind Speed Gust Speed Precip Events Conditions
12:51 AM 26.1 °F - 16.0 °F 66% 30.23 in 10.0 mi Calm Calm - N/A   Clear
1:51 AM 26.1 °F - 16.0 °F 66% 30.24 in 10.0 mi Calm Calm - N/A   Clear
2:51 AM 25.0 °F - 16.0 °F 69% 30.22 in 10.0 mi Calm Calm - N/A   Partly Cloudy
3:51 AM 21.9 °F - 14.0 °F 72% 30.24 in 10.0 mi Calm Calm - N/A   Partly Cloudy
4:51 AM 23.0 °F - 15.1 °F 72% 30.25 in 10.0 mi Calm Calm - N/A   Partly Cloudy
5:51 AM 23.0 °F - 16.0 °F 74% 30.25 in 10.0 mi Calm Calm - N/A   Scattered Clouds
6:51 AM 23.0 °F - 18.0 °F 81% 30.27 in 10.0 mi Calm Calm - N/A   Overcast
7:51 AM 27.0 °F 23.0 °F 21.0 °F 78% 30.30 in 10.0 mi East 3.5 mph - N/A   Overcast
8:51 AM 30.0 °F 23.2 °F 21.9 °F 72% 30.30 in 10.0 mi East 6.9 mph - N/A   Mostly Cloudy
9:51 AM 34.0 °F 26.0 °F 21.0 °F 59% 30.30 in 10.0 mi ESE 10.4 mph - N/A   Mostly Cloudy
10:51 AM 36.0 °F 30.3 °F 19.0 °F 50% 30.31 in 10.0 mi SE 6.9 mph - N/A   Overcast
11:51 AM 39.9 °F 34.5 °F 18.0 °F 41% 30.29 in 10.0 mi SE 8.1 mph - N/A   Overcast
12:51 PM 44.1 °F 39.0 °F 17.1 °F 34% 30.26 in 10.0 mi SSE 9.2 mph - N/A   Mostly Cloudy
1:51 PM 48.9 °F - 14.0 °F 25% 30.22 in 10.0 mi SSE 8.1 mph 16.1 mph N/A   Mostly Cloudy
2:51 PM 51.1 °F - 10.0 °F 19% 30.19 in 10.0 mi SE 6.9 mph 16.1 mph N/A   Mostly Cloudy
3:51 PM 52.0 °F - 7.0 °F 16% 30.16 in 10.0 mi SSE 10.4 mph - N/A   Clear
4:51 PM 54.0 °F - 9.0 °F 17% 30.14 in 10.0 mi SE 11.5 mph - N/A   Mostly Cloudy
5:51 PM 54.0 °F - 8.1 °F 16% 30.12 in 10.0 mi SSE 11.5 mph 17.3 mph N/A   Overcast
6:51 PM 54.0 °F - 7.0 °F 15% 30.11 in 10.0 mi South 10.4 mph - N/A   Overcast
7:51 PM 53.1 °F - 9.0 °F 17% 30.08 in 10.0 mi SE 8.1 mph - N/A   Overcast
8:51 PM 51.1 °F - 10.9 °F 20% 30.05 in 10.0 mi SE 9.2 mph - N/A   Overcast
9:51 PM 51.1 °F - 10.0 °F 19% 30.03 in 10.0 mi SE 10.4 mph - N/A   Overcast
10:51 PM 52.0 °F - 10.9 °F 19% 30.00 in 10.0 mi SE 11.5 mph - N/A   Overcast
11:51 PM 51.1 °F - 12.0 °F 21% 29.97 in 10.0 mi SE 9.2 mph - N/A   Overcast